[[{"header":{"parameterUnit":"m.s-1","parameterCategory":1,"la1":30.2991,"la2":30.254,"lo1":-89.0895,"lo2":-89.0444,"dy":0.0017,"dx":0.0017,"nx":28,"ny":28,"refTime":"2024-12-24T03:00:00:Z","depth":0,"parameterNumber":2,"parameterNumberName":"U-component_of_WINDS"},"data":[0,0,0,0,0,0,0,0,0,0,0,0,0,0,0,0,0,0,0,0,0,0,0,0,0,0,0,0,0,0,0,0,0,0,0,0,0,0,0,0,0,0,0,0,0,0,0,0,0,0,0,0,0,0,0,0,0,0,-8.6025,-8.6025,0,-8.6018,-8.6018,-8.6018,-8.5805,-8.58,-8.5794,-8.5789,-8.5784,-8.5789,-8.5794,0,0,0,0,0,0,0,0,0,0,0,0,0,-8.5853,-8.5858,-8.6025,-8.6025,-8.6024,-8.6018,-8.6018,-8.6018,-8.5806,-8.5799,-8.5793,-8.5786,-8.5782,-8.5788,-8.5794,0,0,0,0,0,0,0,0,0,0,0,0,0,-8.5896,-8.5859,-8.6025,-8.5918,-8.5908,-8.6018,-8.6018,-8.6018,-8.5807,-8.5799,-8.5791,-8.5783,-8.578,-8.5788,-8.5795,-8.6008,0,0,-8.5818,-8.5821,0,0,0,0,0,0,0,0,-8.5894,-8.5902,-8.5934,-8.5925,-8.5915,-8.5904,-8.5956,-8.6015,-8.581,-8.5846,-8.5789,-8.5779,-8.5831,-8.5834,-8.5851,-8.6007,-8.6007,-8.5819,-8.5823,-8.5827,-8.5829,0,0,0,0,0,0,0,-8.5891,-8.5901,-8.6022,-8.5934,-8.5923,-8.587,-8.5867,-8.5966,-8.5885,-8.5842,-8.5826,-8.5829,-8.5824,-8.5844,-8.5849,-8.6007,-8.5819,-8.5825,-8.583,-8.5833,-8.6336,-8.6344,0,0,0,0,0,0,-8.5903,-8.59,-8.6022,-8.6022,-8.5883,-8.588,-8.5877,-8.5916,-8.5883,-8.587,-8.5836,-8.5819,-8.5835,-8.584,-8.5848,-8.6092,-8.5827,-8.5834,-8.5838,-8.6327,-8.6338,-8.6347,0,0,0,0,0,0,-8.59,-8.5915,-8.6022,-8.5957,-8.5966,-8.5892,-8.5938,-8.592,-8.5939,-8.5878,-8.5863,-8.5871,-8.5829,-8.5837,-8.5969,-8.6089,-8.5837,-8.5844,-8.6317,-8.633,-8.6343,-8.6585,0,0,0,0,0,0,-8.5896,-8.5916,-8.5995,-8.596,-8.5971,-8.6144,-8.5945,-8.5926,-8.5953,-8.5931,-8.5907,-8.5896,-8.5823,-8.5959,-8.5977,-8.6095,-8.585,-8.6305,-8.6323,-8.6338,-8.6566,-8.6605,-8.6638,0,0,0,0,0,-8.589,-8.6065,-8.6001,-8.6016,-8.6069,-8.6151,-8.6157,-8.607,-8.5964,-8.6043,-8.6004,-8.5896,-8.6074,-8.5974,-8.5992,-8.6115,-8.6297,-8.6318,-8.6337,-8.6549,-8.6597,-8.6637,0,0,0,0,0,0,-8.6116,-8.6058,-8.5986,-8.6154,-8.616,-8.6115,-8.6212,-8.6123,-8.6159,-8.6137,-8.6027,-8.6024,-8.6172,-8.6157,-8.6047,-8.6318,-8.6167,-8.6191,-8.6322,-8.6367,-8.6402,-8.6402,-8.5856,0,0,0,0,0,-8.6186,-8.6257,-8.6203,-8.6356,-8.6362,-8.6288,-8.6321,-8.6253,-8.6254,-8.6255,-8.6225,-8.623,-8.6286,-8.6326,-8.6375,-8.6564,-8.6554,-8.6657,-8.6693,-8.6723,-8.6745,-8.6841,-8.6886,-8.6413,-8.6412,-8.6412,0,0,-8.633,-8.6307,-8.6359,-8.6401,-8.6397,-8.6473,-8.6291,-8.638,-8.6435,-8.6268,-8.6389,-8.6369,-8.6367,-8.6528,-8.6597,-8.6519,-8.6874,-8.6749,-8.6773,-8.6778,-8.6867,-8.6911,-8.6951,-8.6426,-8.6424,-8.6422,0,0,-8.663,-8.6621,-8.6747,-8.6746,-8.6742,-8.6691,-8.6723,-8.6692,-8.6671,-8.6791,-8.6667,-8.6732,-8.6833,-8.6836,-8.6851,-8.7155,-8.7056,-8.7174,-8.7362,-8.7458,-8.7495,-8.7527,-8.7633,-8.7673,-8.7196,-8.7197,-8.7197,0,-8.6809,-8.6919,-8.6823,-8.6919,-8.6941,-8.6794,-8.692,-8.6925,-8.6938,-8.6956,-8.687,-8.6992,-8.6981,-8.7139,-8.7213,-8.7231,-8.7262,-8.7175,-8.7497,-8.7529,-8.7558,-8.7657,-8.7698,-8.7211,-8.7209,-8.7208,-8.7207,0,-8.7138,-8.7217,-8.7319,-8.7334,-8.7368,-8.7479,-8.74,-8.7446,-8.7376,-8.7335,-8.7459,-8.7441,-8.7483,-8.7516,-8.7449,-8.7665,-8.7617,-8.7517,-8.7361,-8.7619,-8.771,-8.7748,-8.7231,-8.7226,-8.7222,-8.7218,0,0,-8.7579,-8.754,-8.7579,-8.7583,-8.7568,-8.7627,-8.7732,-8.7772,-8.7813,-8.7828,-8.7911,-8.8001,-8.7907,-8.7924,-8.7856,-8.7941,-8.818,-8.7829,-8.7827,-8.7893,-8.8414,-8.8488,-8.8534,-8.8116,-8.8123,-8.8128,-8.8414,0,-8.7867,-8.8043,-8.796,-8.8145,-8.8215,-8.8077,-8.8168,-8.8169,-8.8134,-8.8188,-8.8149,-8.8213,-8.8086,-8.8095,-8.8173,-8.8135,-8.8283,-8.8113,-8.8192,-8.8196,-8.8193,-8.8582,-8.8661,-8.8931,-8.8449,-8.8455,-8.846,0,-8.8226,-8.8255,-8.8447,-8.8418,-8.8444,-8.8528,-8.8557,-8.8612,-8.8611,-8.8579,-8.86,-8.8512,-8.8613,-8.8462,-8.8599,-8.8485,-8.8513,-8.85,-8.8508,-8.8509,-8.8341,-8.8592,-8.9015,-8.9055,-8.8516,-8.8511,-8.8507,0,-8.8525,-8.8612,-8.8737,-8.8746,-8.8716,-8.8778,-8.8769,-8.8759,-8.8788,-8.8815,-8.8833,-8.8872,-8.8893,-8.8926,-8.8851,-8.8749,-8.8998,-8.8841,-8.8973,-8.8976,-8.9029,-8.9026,-8.946,-8.9053,-8.9053,-8.9052,-8.9051,0,-8.8854,-8.8976,-8.887,-8.8948,-8.908,-8.8985,-8.9119,-8.9095,-8.9088,-8.9157,-8.9042,-8.911,-8.9009,-8.9067,-8.9011,-8.9131,-8.9143,-8.9119,-8.9102,-8.9128,-8.913,-8.9142,-8.912,-8.9063,-8.906,-8.9058,-8.9056,0,-8.9208,-8.9143,-8.927,-8.9232,-8.9225,-8.9325,-8.9292,-8.9361,-8.9319,-8.9409,-8.9424,-8.9358,-8.942,-8.935,-8.9408,-8.9369,-8.9532,-8.9489,-8.9532,-8.9519,-8.9654,-8.9641,-9.0107,-9.0163,-8.9724,-8.9729,-8.9732,0,-8.9421,-8.9511,-8.9483,-8.9521,-8.9518,-8.9582,-8.9611,-8.9521,-8.9556,-8.9562,-8.9631,-8.9684,-8.972,-8.9827,-8.9784,-8.9827,-8.9782,-8.9943,-8.9788,-8.9811,-8.9781,-8.9776,-8.9783,-8.9974,-8.9979,-8.9983,-8.9987,0,-8.9804,-8.9767,-8.9813,-8.9849,-8.9887,-8.9911,-8.9926,-8.9964,-8.9871,-8.9916,-8.9978,-9.0008,-9.0066,-9.0119,-9.0151,-9.0141,-9.0049,-9.0037,-9.0069,-9.0094,-9.0114,-9.0103,-8.9615,-9.0025,-9.0022,-9.0019,-9.0017,-9.0015,-9.0091,-9.0165,-9.0156,-9.0211,-9.0213,-9.023,-9.0293,-9.0258,-9.0308,-9.0348,-9.0293,-9.037,-9.0366,-9.0398,-9.0399,-9.0458,-9.039,-9.0437,-9.0449,-9.0461,-9.048,-9.0109,-9.0464,-9.0463,-9.0462,-9.0461,-9.046,0,-9.0466,-9.0454,-9.0506,-9.053,-9.0574,-9.0484,-9.0496,-9.0538,-9.0607,-9.0611,-9.065,-9.0721,-9.0773,-9.0735,-9.0778,-9.0833,-9.0791,-9.0847,-9.084,-9.0839,-9.054,-9.0507,-9.0879,-9.0879,-9.0879,-9.0879,-9.0879,-9.0879,-9.0666,-9.0784,-9.0747,-9.0865,-9.0852,-9.0926,-9.094,-9.0955,-9.0957,-9.1042,-9.1084,-9.1059,-9.1046,-9.1087,-9.113,-9.1117,-9.1138,-9.1208,-9.118,-9.0901,-9.086,-9.0821,-9.0788,-9.1214,-9.1214,-9.1473,-9.1475,-9.1477]},{"header":{"parameterUnit":"m.s-1","parameterCategory":1,"la1":30.2991,"la2":30.254,"lo1":-89.0895,"lo2":-89.0444,"dy":0.0017,"dx":0.0017,"nx":28,"ny":28,"refTime":"2024-12-24T03:00:00:Z","depth":0,"parameterNumber":3,"parameterNumberName":"V-component_of_WINDS"},"data":[0,0,0,0,0,0,0,0,0,0,0,0,0,0,0,0,0,0,0,0,0,0,0,0,0,0,0,0,0,0,0,0,0,0,0,0,0,0,0,0,0,0,0,0,0,0,0,0,0,0,0,0,0,0,0,0,0,0,0.3209,0.3209,0,0.3287,0.3288,0.3288,0.3331,0.3331,0.3331,0.3331,0.3411,0.3413,0.3415,0,0,0,0,0,0,0,0,0,0,0,0,0,0.3097,0.3098,0.3208,0.3209,0.321,0.3287,0.3288,0.3289,0.3331,0.3331,0.3331,0.3331,0.341,0.3412,0.3415,0,0,0,0,0,0,0,0,0,0,0,0,0,0.3157,0.3099,0.3208,0.3241,0.3244,0.3286,0.3288,0.3289,0.3331,0.3331,0.3331,0.3331,0.3409,0.3412,0.3415,0.3431,0,0,0.3424,0.3426,0,0,0,0,0,0,0,0,0.3153,0.3161,0.3235,0.3238,0.3243,0.3299,0.3277,0.3336,0.3331,0.3298,0.3331,0.3331,0.3373,0.3379,0.3394,0.3434,0.3438,0.3425,0.3426,0.3428,0.3429,0,0,0,0,0,0,0,0.3149,0.3158,0.3239,0.3236,0.3241,0.3252,0.326,0.3289,0.3334,0.3301,0.3304,0.3313,0.3375,0.3391,0.3396,0.3439,0.3424,0.3427,0.3429,0.343,0.3499,0.3499,0,0,0,0,0,0,0.314,0.3154,0.3237,0.3242,0.3198,0.3253,0.3263,0.3281,0.3334,0.3342,0.3312,0.3314,0.3385,0.3392,0.3399,0.3422,0.3428,0.3431,0.3432,0.3499,0.3499,0.3499,0,0,0,0,0,0,0.3137,0.3147,0.3234,0.3199,0.3211,0.3255,0.3275,0.3282,0.3297,0.3342,0.3351,0.332,0.3386,0.3394,0.3423,0.3425,0.3432,0.3435,0.3499,0.3499,0.3499,0.3467,0,0,0,0,0,0,0.3134,0.3146,0.3152,0.3199,0.3212,0.3256,0.3275,0.3284,0.3303,0.3306,0.3351,0.3359,0.3387,0.3418,0.3426,0.343,0.3437,0.3499,0.3499,0.3499,0.3468,0.3466,0.3465,0,0,0,0,0,0.313,0.3139,0.3152,0.3162,0.3221,0.3256,0.3264,0.3296,0.3303,0.331,0.3339,0.3358,0.3424,0.3421,0.343,0.3434,0.3499,0.3499,0.3499,0.3469,0.3467,0.3465,0,0,0,0,0,0,0.3091,0.3146,0.316,0.3186,0.3216,0.3263,0.3273,0.3292,0.3321,0.3323,0.336,0.337,0.3396,0.3418,0.3414,0.3453,0.3463,0.3465,0.3438,0.3436,0.3434,0.3428,0.344,0,0,0,0,0,0.3085,0.3109,0.3156,0.3174,0.3188,0.3228,0.3244,0.3266,0.3299,0.3312,0.3344,0.3375,0.3403,0.342,0.3449,0.3472,0.3483,0.348,0.3478,0.3476,0.3477,0.3492,0.3492,0.3499,0.3499,0.3499,0,0,0.3074,0.3107,0.312,0.3167,0.3193,0.3218,0.3238,0.3263,0.3282,0.3316,0.3345,0.3369,0.3407,0.3433,0.3446,0.3452,0.3478,0.3476,0.3474,0.3476,0.3492,0.3491,0.3491,0.3499,0.3499,0.3499,0,0,0.3066,0.3093,0.3111,0.3138,0.3177,0.3204,0.3208,0.3253,0.3271,0.3301,0.3327,0.335,0.3397,0.3423,0.3443,0.3446,0.3465,0.3454,0.3444,0.3458,0.3458,0.3458,0.346,0.346,0.3455,0.3455,0.3455,0,0.3047,0.3085,0.3118,0.3142,0.3163,0.3195,0.3215,0.3238,0.3285,0.3299,0.3305,0.3366,0.3393,0.3427,0.3428,0.3442,0.3449,0.3449,0.3455,0.3455,0.3456,0.3458,0.3459,0.3454,0.3454,0.3454,0.3454,0,0.306,0.3086,0.3096,0.3141,0.3163,0.3184,0.3221,0.3239,0.3259,0.3285,0.3316,0.335,0.3387,0.3396,0.3416,0.3433,0.3436,0.3448,0.3459,0.3453,0.3456,0.3457,0.3451,0.3452,0.3452,0.3453,0,0,0.3029,0.3093,0.3097,0.3118,0.3165,0.3186,0.3209,0.3245,0.326,0.3292,0.3313,0.3352,0.3365,0.3387,0.341,0.3422,0.3424,0.3433,0.3435,0.3431,0.3446,0.3437,0.3438,0.3437,0.3437,0.3437,0.3444,0,0.3028,0.3072,0.3104,0.3135,0.316,0.3192,0.3213,0.3244,0.3269,0.3294,0.3322,0.335,0.3363,0.3377,0.3391,0.3421,0.3428,0.3421,0.3457,0.3458,0.3447,0.3439,0.3429,0.3434,0.3445,0.3445,0.3445,0,0.3033,0.3065,0.3099,0.3144,0.3156,0.3174,0.321,0.3234,0.327,0.3288,0.3313,0.3337,0.3363,0.3371,0.3409,0.3403,0.342,0.3437,0.3438,0.3443,0.3452,0.3445,0.3436,0.3436,0.3447,0.3447,0.3447,0,0.3009,0.3059,0.3087,0.3104,0.3157,0.317,0.3192,0.3229,0.3249,0.3281,0.3294,0.3328,0.3347,0.3373,0.3406,0.3409,0.344,0.3451,0.3456,0.3455,0.3462,0.3461,0.3456,0.3471,0.3471,0.3471,0.3471,0,0.3005,0.3025,0.3077,0.3093,0.3117,0.3154,0.3176,0.3202,0.3234,0.3257,0.3286,0.3307,0.3349,0.3375,0.34,0.3428,0.3436,0.3451,0.3458,0.3449,0.3447,0.3461,0.3462,0.3471,0.3471,0.3471,0.3471,0,0.2982,0.3017,0.3049,0.3098,0.3111,0.3126,0.3168,0.3186,0.3213,0.3241,0.325,0.3292,0.3324,0.336,0.3403,0.3421,0.3447,0.3456,0.3435,0.3439,0.3442,0.3442,0.3446,0.3449,0.3462,0.3461,0.3461,0,0.2978,0.2994,0.3045,0.3062,0.3085,0.3112,0.3133,0.317,0.3191,0.3234,0.3247,0.3282,0.3311,0.3361,0.3396,0.343,0.344,0.344,0.3446,0.3437,0.3442,0.344,0.3443,0.3438,0.3438,0.3437,0.3437,0,0.2967,0.2984,0.3013,0.3049,0.3073,0.3103,0.3134,0.3147,0.319,0.3212,0.3245,0.3268,0.3314,0.3348,0.3386,0.341,0.3431,0.3435,0.3438,0.343,0.3417,0.3425,0.3431,0.3435,0.3435,0.3435,0.3435,0.3435,0.2954,0.297,0.3009,0.3041,0.3068,0.3097,0.3117,0.3147,0.3175,0.3216,0.3235,0.3269,0.3306,0.336,0.3383,0.341,0.3417,0.3421,0.3422,0.3423,0.3421,0.3412,0.3417,0.3417,0.3417,0.3417,0.3418,0,0.2945,0.2972,0.3001,0.3044,0.307,0.3088,0.3123,0.3143,0.3173,0.3206,0.3235,0.3274,0.3307,0.3345,0.3381,0.3395,0.3406,0.3404,0.3403,0.3409,0.3413,0.3407,0.3395,0.3395,0.3395,0.3395,0.3395,0.3395,0.2944,0.2973,0.2995,0.3039,0.3065,0.3099,0.3118,0.3145,0.3171,0.3214,0.3242,0.3267,0.3302,0.3341,0.3373,0.3383,0.3395,0.339,0.3403,0.3406,0.3408,0.341,0.3405,0.3392,0.3392,0.3397,0.3397,0.3397]}]]